Weather History for Cairns, QU

Change the Weather History Date:

Wednesday, February 13, 2013

  Actual Average Record
Temperature  
Mean Temperature 82 °F -  
Max Temperature 89 °F 88 °F 93 °F (2007)
Min Temperature 74 °F 74 °F 39 °F (2007)
Cooling Degree Days 16    
Growing Degree Days 32 (Base 50)    
Moisture  
Dew Point 71 °F    
Average Humidity 69    
Maximum Humidity 94    
Minimum Humidity 51    
Precipitation  
Precipitation 0.24 in 0.57 in - ()
Sea Level Pressure  
Sea Level Pressure 29.79 in    
Wind  
Wind Speed 10 mph ()    
Max Wind Speed 20 mph    
Max Gust Speed -    
Visibility 7.3 miles    
Events Rain    
Averages and records for this station are not official NWS values.
T = Trace of Precipitation, MM = Missing Value Source: Averaged Metar Reports

Daily Weather History Graph

Daily Weather History Graph

Search for Another Location

Airport:

Trip Planner

Search our weather history database for the weather conditions in past years. The results will help you decide how hot, cold, wet, or windy it might be!

Date:

Astronomy

Feb. 13, 2013 Rise Set
Actual Time 6:11 AM AEST 6:51 PM AEST
Civil Twilight 5:48 AM AEST 7:13 PM AEST
Nautical Twilight 5:22 AM AEST 7:39 PM AEST
Astronomical Twilight 4:55 AM AEST 8:06 PM AEST
Moon 8:35 AM AEST (2/13) 8:47 PM AEST (2/13)
Length of Visible Light 13h 24m
Length of Day
12h 40m
Waxing Crescent, 9% of the Moon is Illuminated
Feb 13
Waxing Crescent
Feb 18
First Quarter
Feb 26
Full
Mar 5
Last Quarter
Mar 12
New

Hourly Weather History & Observations

Time (AEST) Temp. Heat Index Dew Point Humidity Pressure Visibility Wind Dir Wind Speed Gust Speed Precip Events Conditions
12:00 AM 79 °F - 71 °F 69% 29.83 in - South 6.9 mph - -  
12:00 AM 78.8 °F - 71.6 °F 78% 29.83 in 6.2 mi South 6.9 mph - N/A   Scattered Clouds
12:30 AM 78.8 °F - 69.8 °F 74% 29.83 in 6.2 mi South 5.8 mph - N/A   Partly Cloudy
1:00 AM 78 °F - 70 °F 70% 29.83 in - South 5.8 mph - -  
1:00 AM 78.8 °F - 69.8 °F 74% 29.83 in 6.2 mi South 5.8 mph - N/A   Partly Cloudy
1:30 AM 77.0 °F - 69.8 °F 78% 29.80 in 6.2 mi South 8.1 mph - N/A   Partly Cloudy
2:00 AM 77.0 °F - 69.8 °F 78% 29.80 in 6.2 mi SSE 9.2 mph - N/A   Partly Cloudy
2:30 AM 77.0 °F - 68.0 °F 74% 29.80 in 6.2 mi South 9.2 mph - N/A   Partly Cloudy
3:00 AM 78 °F - 67 °F 62% 29.80 in - South 8.1 mph - -  
3:00 AM 78.8 °F - 68.0 °F 69% 29.80 in 6.2 mi South 8.1 mph - N/A   Partly Cloudy
3:30 AM 78.8 °F - 66.2 °F 65% 29.80 in 6.2 mi South 8.1 mph - N/A   Partly Cloudy
4:00 AM 78 °F - 67 °F 62% 29.80 in - South 6.9 mph - -  
4:00 AM 78.8 °F - 68.0 °F 69% 29.77 in 6.2 mi South 6.9 mph - N/A   Partly Cloudy
4:30 AM 75.2 °F - 69.8 °F 83% 29.77 in 6.2 mi SE 9.2 mph - N/A   Scattered Clouds
5:00 AM 75.2 °F - 69.8 °F 83% 29.77 in 6.2 mi SE 10.4 mph - N/A   Scattered Clouds
5:30 AM 75.2 °F - 69.8 °F 83% 29.77 in 6.2 mi SSE 4.6 mph - N/A   Scattered Clouds
6:00 AM 75 °F - 69 °F 76% 29.80 in 19 mi SSE 5.8 mph - -   Partly Cloudy
6:00 AM 75.2 °F - 69.8 °F 83% 29.80 in 6.2 mi SSE 5.8 mph - N/A   Mostly Cloudy
6:30 AM 75.2 °F - 69.8 °F 83% 29.80 in 6.2 mi SE 9.2 mph - N/A   Mostly Cloudy
7:00 AM 77 °F - 69 °F 70% 29.82 in - SE 10.4 mph - -  
7:00 AM 77.0 °F - 69.8 °F 78% 29.80 in 6.2 mi SE 10.4 mph - N/A   Mostly Cloudy
7:30 AM 80.6 °F 83.9 °F 69.8 °F 70% 29.83 in 6.2 mi SSE 5.8 mph - N/A   Scattered Clouds
8:00 AM 78.8 °F - 69.8 °F 74% 29.83 in 6.2 mi SSE 11.5 mph - N/A   Scattered Clouds
8:30 AM 78.8 °F - 69.8 °F 74% 29.83 in 6.2 mi South 9.2 mph - N/A   Scattered Clouds
9:00 AM 82 °F - 71 °F 61% 29.84 in 19 mi South 9.2 mph - -   Partly Cloudy
9:00 AM 82.4 °F 87.2 °F 71.6 °F 70% 29.83 in 6.2 mi South 9.2 mph - N/A   Scattered Clouds
9:30 AM 84.2 °F 89.6 °F 71.6 °F 66% 29.83 in 6.2 mi South 13.8 mph - N/A   Scattered Clouds
10:00 AM 85 °F - 71 °F 54% 29.84 in - SSE 13.8 mph - -  
10:00 AM 86.0 °F 91.8 °F 71.6 °F 62% 29.83 in 6.2 mi SSE 13.8 mph - N/A   Scattered Clouds
10:30 AM 86.0 °F 91.8 °F 71.6 °F 62% 29.83 in 6.2 mi South 12.7 mph - N/A   Scattered Clouds
11:00 AM 86.0 °F 91.8 °F 71.6 °F 62% 29.83 in 6.2 mi SSE 16.1 mph - N/A   Scattered Clouds
11:30 AM 86.0 °F 91.8 °F 71.6 °F 62% 29.83 in 6.2 mi South 15.0 mph - N/A   Scattered Clouds
12:00 PM 87 °F - 71 °F 51% 29.81 in 19 mi South 12.7 mph - -   Partly Cloudy
12:00 PM 86.0 °F 91.8 °F 71.6 °F 62% 29.80 in 6.2 mi South 12.7 mph - N/A   Scattered Clouds
12:30 PM 86.0 °F 91.8 °F 71.6 °F 62% 29.80 in 6.2 mi South 10.4 mph - N/A   Scattered Clouds
1:00 PM 86 °F - 72 °F 54% 29.80 in - SSE 12.7 mph - -  
1:00 PM 86.0 °F 91.8 °F 71.6 °F 62% 29.80 in 6.2 mi SSE 12.7 mph - N/A   Scattered Clouds
1:30 PM 89.6 °F 96.2 °F 71.6 °F 55% 29.77 in 6.2 mi SE 16.1 mph - N/A   Scattered Clouds
2:00 PM 89.6 °F 96.2 °F 71.6 °F 55% 29.77 in 6.2 mi ESE 16.1 mph - N/A   Scattered Clouds
2:30 PM 87.8 °F 93.8 °F 71.6 °F 58% 29.74 in 6.2 mi SE 15.0 mph - N/A   Scattered Clouds
3:00 PM 87 °F - 72 °F 52% 29.75 in 19 mi SSE 15.0 mph - -   Partly Cloudy
3:00 PM 86.0 °F 91.8 °F 71.6 °F 62% 29.74 in 6.2 mi SSE 15.0 mph - N/A   Scattered Clouds
3:30 PM 87.8 °F 93.8 °F 71.6 °F 58% 29.74 in 6.2 mi SE 18.4 mph - N/A   Scattered Clouds
4:00 PM 88 °F - 72 °F 51% 29.75 in - SE 18.4 mph - -  
4:00 PM 87.8 °F 95.6 °F 73.4 °F 62% 29.74 in 6.2 mi SE 18.4 mph - N/A   Scattered Clouds
4:30 PM 86.0 °F 93.4 °F 73.4 °F 66% 29.71 in 6.2 mi SE 17.3 mph - N/A   Scattered Clouds
5:00 PM 87.8 °F 95.6 °F 73.4 °F 62% 29.71 in 6.2 mi SE 16.1 mph - N/A   Partly Cloudy
5:30 PM 86.0 °F 93.4 °F 73.4 °F 66% 29.74 in 6.2 mi SSE 13.8 mph - N/A   Scattered Clouds
6:00 PM 85 °F - 73 °F 60% 29.75 in 19 mi SE 15.0 mph - -   Partly Cloudy
6:00 PM 84.2 °F 90.9 °F 73.4 °F 70% 29.74 in 6.2 mi SE 15.0 mph - N/A   Scattered Clouds
6:30 PM 84.2 °F 89.6 °F 71.6 °F 66% 29.74 in 6.2 mi SSE 15.0 mph - N/A   Partly Cloudy
7:00 PM 84 °F - 71 °F 56% 29.77 in - SSE 15.0 mph - -  
7:00 PM 84.2 °F 89.6 °F 71.6 °F 66% 29.74 in 6.2 mi SSE 15.0 mph - N/A   Partly Cloudy
7:30 PM 82.4 °F 87.2 °F 71.6 °F 70% 29.77 in 6.2 mi SSE 13.8 mph - N/A   Partly Cloudy
8:00 PM 82.4 °F 86.3 °F 69.8 °F 66% 29.77 in 6.2 mi SSE 17.3 mph - N/A   Partly Cloudy
8:30 PM 82.4 °F 87.2 °F 71.6 °F 70% 29.80 in 6.2 mi SSE 13.8 mph - N/A   Partly Cloudy
9:00 PM 81 °F - 72 °F 69% 29.81 in 12 mi South 10.4 mph - -   Partly Cloudy
9:00 PM 80.6 °F 85.4 °F 73.4 °F 79% 29.80 in 6.2 mi South 10.4 mph - N/A   Partly Cloudy
9:30 PM 80.6 °F 85.4 °F 73.4 °F 79% 29.80 in 6.2 mi South 15.0 mph - N/A   Partly Cloudy
10:00 PM 79 °F - 73 °F 78% 29.83 in - SE 19.6 mph - -  
10:00 PM 78.8 °F - 73.4 °F 83% 29.80 in 5.6 mi SE 19.6 mph - N/A Rain Light Rain Showers
10:30 PM 78.8 °F - 73.4 °F 83% 29.83 in 6.2 mi SSE 16.1 mph - N/A   Scattered Clouds
10:47 PM 78.8 °F - 75.2 °F 89% 29.83 in 2.5 mi SSE 16.1 mph - N/A Rain Rain Showers
11:00 PM 77.0 °F - 75.2 °F 94% 29.83 in 1.9 mi SE 15.0 mph - N/A Rain Rain Showers
11:17 PM 77.0 °F - 75.2 °F 94% 29.83 in 5.6 mi South 15.0 mph - N/A   Mostly Cloudy
11:30 PM 77.0 °F - 75.2 °F 94% 29.83 in 6.2 mi South 11.5 mph - N/A   Mostly Cloudy